sat.trackr.live / text

‹ back to catalog

STARLINK-33937

NORAD 63704 · 2025-087H

PAYLOAD ACTIVE UNKNOWN

§ Identity

Operator
Country
US
Launch date
2025-04-28
Launch site
AFWTR
Launch vehicle
Mass (kg)
RCS (m²)

Purposes: comms

External: N2YO · Heavens-Above · Gunter

§ Orbital elements

Epoch: 2026-05-24T15:37:41.574432Z

Period
94.10 min
Inclination
53.1570°
Eccentricity
0.0001171
Mean motion
15.30213433 rev/d
Perigee alt
474.4 km
Apogee alt
476.0 km
Semi-major
6,853.3 km
B*
2.8278e-4
RAAN
226.4397°
Arg perigee
86.8415°
Mean anomaly
273.2719°
Rev number
6,083

§ Raw data

STARLINK-339371 63704U 25087H   26144.65117563  .00008029  00000+0  28278-3 0  99912 63704  53.1570 226.4397 0001171  86.8415 273.2719 15.30213433 60831

JSON: /api/v1/satellites/63704 · /tle

For live sub-satellite position, see the globe view (requires WebGL).

§ Visibility from observer

Set your observer location to see the next 7 days of passes ≥ 10°. The values pass through the URL so the page stays shareable.

No JS? Fill the form by hand. The geolocation button needs JavaScript.